CAPE
8 0 7 12 22 23 18 29 20 19 19 6 28 23 14 19 9 14 0 1 5 11 2 0 0 0 0 0 0 0 0 0 2 3 16 90 38 21 4 0 0 98 177 82 10 20 10 125 84 58 9 159 118 19
2 21 10 20 22 16 9 13 13 21 10 6 0 9 21 24 25 18 0 2 21 8 2 0 0 0 0 0 0 0 0 0 11 1 0 0 0 232 226 0 11 387 191 55 22 1 0 43 57 50 64 244 175 209
14 9 4 24 17 8 28 17 19 19 11 12 1 7 20 27 33 22 0 5 3 4 0 0 0 0 0 0 0 0 0 0 0 8 3 4 174 74 149 187 240 401 299 117 127 40 0 53 261 77 21 217 104 73
18 13 20 23 14 13 11 8 8 16 13 0 0 0 14 22 24 26 3 6 12 4 5 0 0 0 0 0 0 0 0 0 1 17 5 3 17 148 244 50 127 245 120 108 275 249 253 186 75 37 381 332 189 169
12 14 17 17 19 23 10 11 12 17 5 0 0 23 18 14 11 7 0 0 0 0 5 0 0 0 0 0 0 0 0 0 0 22 1 2 39 44 62 6 75 47 1 97 203 225 197 119 1 1 0 154 149 149
6 0 0 14 25 27 12 16 9 7 0 0 1 18 18 13 4 0 2 0 10 20 5 0 0 0 0 0 0 0 0 2 0 36 3 1 9 0 51 19 0 3 0 0 0 11 257 90 36 75 13 16 82 94
21 7 0 2 24 27 11 8 22 14 13 9 17 0 17 11 5 2 0 0 0 3 13 0 0 0 0 0 0 0 0 0 0 22 22 62 1 3 0 5 0 0 0 1 0 1 5 18 0 0 18 8 101 156
2 13 1 1 5 16 22 11 19 18 6 11 0 0 0 7 0 0 0 3 0 0 13 1 0 0 4 0 0 0 0 0 0 0 5 6 0 2 0 49 26 13 10 0 0 0 0 5 41 91 117 84 86 42
7 9 13 2 2 21 22 13 19 20 7 18 0 0 0 2 7 0 14 21 0 0 0 5 0 0 31 6 18 9 15 0 9 0 0 0 0 2 27 35 0 5 2 0 0 0 0 0 104 212 129 106 20 13
8 4 12 19 1 2 26 14 18 24 3 1 1 1 2 0 33 25 3 8 15 11 6 1 0 0 0 18 0 1 7 0 9 0 0 0 0 0 0 0 0 0 14 0 39 32 38 226 156 137 61 36 11 6
14 21 16 20 14 1 18 22 16 9 7 4 7 2 11 4 9 0 0 5 0 5 0 0 0 0 3 0 0 4 0 12 3 0 0 0 0 0 26 48 0 0 0 0 0 210 320 283 206 133 94 74 42 25
11 7 17 22 24 0 19 24 15 0 7 10 9 5 11 5 1 0 0 1 1 0 0 0 0 0 7 8 4 0 6 3 8 31 0 0 0 0 16 37 58 4 9 2 0 10 176 271 325 233 187 103 59 20
26 17 14 13 23 0 14 16 9 1 0 0 3 0 0 2 0 1 1 1 0 11 23 6 0 22 22 14 8 0 8 0 18 15 4 0 0 73 26 2 50 23 13 3 0 22 12 2 62 186 120 161 82 25
15 13 4 13 8 0 23 12 5 5 3 0 1 0 0 2 0 0 0 2 9 34 35 11 23 0 1 0 19 0 5 1 0 0 4 33 122 95 35 1 3 0 0 0 0 0 0 0 0 35 97 129 106 67
3 8 9 4 0 7 18 14 9 7 4 1 3 0 0 8 6 1 0 0 1 0 23 15 11 16 3 4 1 0 0 0 0 2 46 30 24 29 4 0 0 0 1 2 0 0 0 0 0 0 103 142 112 73
0 6 1 0 0 6 6 7 14 2 11 2 5 4 14 2 13 16 0 0 0 21 27 6 0 0 0 1 0 0 5 1 0 51 11 4 0 0 0 10 13 0 10 7 36 47 15 1 0 0 0 64 10 38
0 7 0 0 1 3 1 1 8 7 1 7 0 0 5 1 1 3 18 0 3 18 0 0 1 0 1 7 1 0 1 0 1 8 2 0 0 0 0 0 0 0 0 5 34 56 81 62 10 0 0 0 94 95
0 9 0 0 0 0 3 0 10 10 7 0 0 0 0 11 5 4 1 2 2 12 10 5 9 5 1 4 6 0 0 26 15 4 0 0 0 0 2 9 5 5 11 14 25 12 50 77 100 57 128 161 89 83
7 0 0 0 0 6 18 4 5 0 1 2 0 6 0 6 2 10 16 15 6 34 4 30 2 5 6 70 0 0 11 28 45 32 3 0 4 4 5 0 0 0 12 29 96 58 55 96 97 83 91 95 88 29
0 0 0 0 0 3 7 11 9 1 0 0 5 3 12 13 34 66 53 34 6 0 0 7 4 7 14 1 0 0 1 23 19 7 18 4 8 1 3 10 14 2 0 3 45 40 58 115 165 39 28 89 49 16
0 0 0 0 0 0 11 18 4 0 0 5 5 0 21 5 5 0 7 58 39 18 28 0 24 8 6 0 2 10 0 1 17 6 2 0 8 21 35 3 1 0 0 0 0 4 73 138 98 87 12 4 4 3
7 0 0 0 6 23 5 16 0 3 0 3 0 0 12 0 1 15 38 12 4 4 0 0 0 0 0 0 0 0 0 0 0 0 0 0 0 9 11 16 7 0 0 1 27 56 93 110 47 4 0 0 0 0
0 1 41 23 6 0 0 3 1 0 2 3 12 7 9 4 17 0 0 2 1 0 0 0 0 0 0 0 0 0 0 0 0 0 0 0 0 1 10 3 3 4 10 35 44 67 53 13 0 0 0 0 0 0
0 0 1 1 4 0 0 1 1 4 17 6 5 3 3 6 8 0 1 1 0 0 0 2 1 1 1 1 2 1 0 0 0 0 0 0 0 0 0 1 5 3 0 26 41 54 43 7 0 0 0 0 0 0
0 0 0 0 0 4 6 0 1 1 0 2 7 2 0 0 0 0 0 0 0 2 2 2 1 1 0 0 1 1 0 1 1 1 0 0 0 0 0 0 0 0 0 1 60 29 18 7 0 0 0 0 0 0
0 0 0 0 0 1 1 0 0 0 0 1 0 5 2 0 0 0 0 0 0 1 1 1 1 0 0 1 0 0 0 1 0 1 0 0 0 0 0 0 0 0 0 10 40 26 12 3 0 0 0 0 0 0
0 0 0 0 1 4 4 14 13 0 0 0 0 0 0 0 0 0 0 0 1 0 2 1 0 0 0 0 1 0 0 0 0 0 0 0 1 1 0 0 0 0 0 47 44 18 5 0 0 0 0 0 0 0
7 7 3 1 0 0 2 0 0 0 0 1 4 0 0 0 0 0 0 0 1 1 1 0 1 1 1 0 0 2 2 1 0 0 1 0 0 0 0 0 0 0 0 64 21 0 0 0 0 0 0 0 0 0
0 3 0 0 0 1 3 0 0 0 0 1 0 0 0 0 0 0 0 0 0 0 4 0 0 1 0 1 0 0 4 0 0 0 0 0 3 0 0 0 0 7 11 0 0 0 0 0 0 0 0 0 0 0
3 0 0 0 0 0 1 0 0 3 2 1 0 0 0 0 0 0 3 1 1 7 10 3 1 0 0 3 3 0 0 0 0 0 0 0 0 0 0 4 13 6 1 0 0 0 0 0 0 0 0 0 0 0
1 0 0 0 2 3 2 2 2 4 4 2 5 4 10 7 8 7 8 0 0 0 3 3 1 1 0 0 0 1 2 1 0 0 1 3 12 22 25 19 6 3 2 1 0 4 12 16 13 8 5 1 0 0
6 5 0 2 8 4 6 6 1 0 1 0 2 6 0 0 0 4 8 1 0 0 0 1 1 2 2 0 1 0 0 7 18 27 24 27 13 11 6 5 7 10 8 7 5 12 28 44 40 24 2 0 0 0
2 5 4 2 7 8 2 3 1 0 2 2 0 2 0 3 8 9 13 3 1 2 2 0 0 0 0 0 1 0 0 0 0 0 0 1 3 6 13 13 7 2 7 6 9 5 5 4 0 1 0 0 0 0
CIN
-0 -0 -0 -0 -0 -0 -0 -1 -3 -2 -1 -3 -1 -0 -0 -0 -5 -1 -0 -10 -0 -0 -0 -0 -0 -0 -0 -0 -0 -0 -0 -0 -20 -56 -33 -13 -34 -5 -6 -0 -0 -34 -31 -79 -113 -38 -21 -109 -94 -57 -137 -251 -236 -182
-1 -0 -0 -1 -0 -0 -3 -4 -3 -2 -4 -5 -0 -2 -0 -0 -2 -4 -0 -30 -2 -2 -0 -0 -0 -0 -0 -0 -0 -0 -0 -0 -0 -0 -5 -0 -0 -14 -8 -0 -29 -23 -67 -81 -113 -92 -0 -166 -54 -174 -153 -145 -203 -254
-0 -0 -0 -0 -1 -5 -1 -2 -1 -1 -3 -0 -2 -2 -0 -0 -0 -0 -0 -4 -3 -1 -0 -0 -0 -0 -0 -0 -0 -0 -0 -0 -0 -0 -0 -0 -6 -59 -17 -81 -63 -72 -99 -31 -93 -151 -25 -36 -73 -166 -154 -137 -180 -220
-0 -0 -0 -0 -4 -5 -4 -4 -3 -0 -3 -0 -0 -0 -0 -0 -0 -0 -2 -8 -2 -1 -0 -0 -0 -0 -0 -0 -0 -0 -0 -0 -1 -3 -0 -0 -7 -51 -25 -95 -104 -122 -112 -96 -30 -70 -105 -129 -70 -135 -109 -140 -161 -192
-0 -0 -0 -0 -1 -2 -6 -6 -4 -0 -2 -0 -0 -0 -0 -3 -5 -5 -0 -0 -1 -0 -0 -0 -0 -0 -0 -0 -0 -0 -0 -0 -0 -0 -0 -0 -3 -131 -74 -95 -70 -130 -28 -128 -29 -94 -59 -87 -30 -37 -34 -74 -65 -170
-0 -1 -0 -2 -0 -0 -5 -1 -3 -3 -0 -0 -0 -0 -1 -3 -10 -1 -0 -0 -7 -5 -9 -1 -0 -0 -0 -0 -0 -0 -0 -3 -0 -2 -0 -0 -6 -10 -5 -75 -0 -32 -0 -0 -5 -117 -117 -107 -115 -56 -60 -82 -37 -77
-0 -0 -0 -0 -1 -0 -2 -4 -1 -0 -0 -0 -1 -0 -4 -2 -5 -0 -0 -0 -0 -12 -0 -0 -0 -0 -0 -0 -0 -0 -0 -0 -0 -9 -2 -3 -0 -3 -0 -67 -0 -0 -0 -27 -7 -45 -145 -168 -0 -0 -194 -29 -21 -53
-2 -0 -0 -0 -0 -1 -0 -2 -1 -0 -0 -0 -0 -0 -0 -3 -0 -0 -0 -23 -6 -0 -1 -0 -0 -0 -4 -1 -0 -0 -0 -0 -1 -0 -3 -2 -0 -15 -5 -6 -47 -80 -64 -12 -0 -0 -0 -22 -46 -35 -35 -11 -63 -56
-5 -2 -0 -0 -0 -0 -0 -0 -1 -0 -2 -1 -0 -0 -0 -1 -0 -0 -4 -3 -0 -0 -0 -1 -0 -0 -7 -1 -0 -0 -4 -0 -40 -0 -0 -0 -0 -0 -8 -9 -21 -14 -10 -0 -0 -0 -0 -0 -6 -26 -27 -27 -71 -91
-5 -9 -4 -0 -0 -0 -0 -0 -0 -1 -5 -1 -0 -0 -0 -0 -11 -11 -14 -4 -0 -1 -1 -0 -0 -0 -0 -8 -3 -0 -2 -0 -4 -1 -15 -0 -0 -0 -0 -0 -0 -0 -126 -0 -3 -8 -10 -6 -19 -19 -40 -53 -78 -20
-6 -3 -3 -2 -2 -0 -0 -0 -0 -4 -3 -2 -1 -0 -2 -6 -2 -0 -0 -0 -0 -0 -0 -0 -0 -0 -2 -0 -0 -7 -1 -2 -2 -0 -0 -0 -0 -0 -29 -25 -0 -0 -0 -0 -0 -7 -9 -10 -17 -30 -32 -40 -50 -75
-9 -11 -7 -3 -2 -0 -0 -0 -2 -0 -2 -2 -0 -1 -0 -0 -0 -1 -0 -4 -1 -0 -0 -0 -0 -0 -3 -12 -4 -15 -19 -20 -1 -14 -0 -0 -0 -0 -46 -31 -41 -37 -10 -7 -0 -27 -16 -11 -9 -20 -22 -20 -18 -18
-1 -8 -10 -7 -2 -0 -0 -2 -4 -3 -0 -3 -4 -0 -0 -1 -0 -0 -0 -0 -2 -23 -13 -3 -0 -9 -11 -14 -12 -0 -12 -0 -24 -15 -1 -0 -0 -32 -44 -44 -11 -28 -14 -14 -0 -35 -46 -17 -51 -13 -15 -16 -34 -33
-2 -9 -11 -7 -3 -0 -0 -3 -2 -0 -0 -0 -0 -0 -0 -0 -0 -2 -1 -13 -8 -12 -13 -11 -2 -1 -1 -0 -14 -0 -8 -15 -0 -0 -4 -13 -15 -40 -37 -14 -28 -0 -0 -0 -0 -0 -0 -4 -0 -36 -24 -26 -25 -23
-9 -10 -6 -1 -0 -1 -0 -0 -1 -0 -0 -0 -0 -0 -0 -6 -17 -18 -0 -0 -9 -0 -29 -15 -19 -15 -6 -5 -4 -0 -0 -0 -0 -2 -19 -38 -42 -45 -43 -4 -0 -0 -60 -82 -0 -0 -0 -0 -0 -0 -25 -23 -24 -37
-4 -4 -0 -0 -0 -0 -0 -1 -0 -0 -0 -0 -0 -1 -7 -15 -2 -0 -0 -0 -0 -4 -23 -44 -0 -5 -2 -4 -0 -0 -1 -0 -0 -12 -61 -106 -7 -0 -0 -65 -58 -0 -83 -63 -26 -18 -9 -1 -0 -0 -0 -26 -52 -61
-0 -2 -0 -0 -2 -1 -2 -0 -1 -0 -0 -0 -0 -0 -2 -1 -5 -24 -7 -0 -7 -3 -0 -0 -12 -0 -3 -4 -0 -0 -2 -0 -0 -0 -14 -0 -0 -0 -0 -0 -0 -0 -0 -24 -33 -50 -31 -27 -9 -0 -0 -1 -18 -38
-1 -3 -0 -0 -0 -0 -0 -0 -0 -1 -0 -0 -0 -0 -1 -9 -7 -5 -2 -16 -5 -5 -7 -5 -7 -6 -4 -0 -1 -0 -0 -5 -7 -61 -0 -0 -0 -0 -10 -1 -2 -3 -5 -12 -21 -43 -31 -31 -23 -17 -19 -19 -28 -42
-0 -0 -0 -0 -1 -1 -0 -0 -2 -0 -0 -5 -0 -11 -0 -12 -2 -4 -9 -6 -9 -11 -21 -11 -4 -6 -16 -7 -0 -0 -5 -9 -5 -8 -12 -10 -27 -14 -5 -0 -2 -1 -10 -22 -16 -28 -21 -26 -30 -24 -31 -26 -32 -78
-0 -0 -0 -0 -0 -0 -0 -2 -5 -0 -1 -0 -2 -5 -19 -11 -3 -1 -2 -5 -10 -3 -3 -11 -6 -16 -32 -10 -11 -0 -18 -6 -13 -16 -9 -13 -19 -17 -7 -6 -13 -21 -0 -28 -28 -25 -22 -14 -32 -73 -80 -39 -57 -90
-0 -0 -0 -0 -0 -0 -0 -2 -0 -0 -0 -1 -0 -0 -1 -10 -16 -0 -13 -1 -3 -3 -1 -0 -1 -11 -17 -0 -13 -1 -0 -18 -16 -4 -3 -0 -9 -9 -12 -14 -26 -0 -0 -0 -0 -33 -19 -16 -50 -58 -96 -84 -61 -31
-12 -0 -2 -0 -0 -1 -11 -4 -1 -6 -0 -15 -1 -0 -1 -2 -3 -15 -12 -6 -3 -0 -0 -0 -0 -0 -0 -0 -0 -0 -0 -0 -0 -0 -0 -0 -0 -3 -3 -7 -14 -14 -4 -2 -13 -24 -23 -30 -40 -43 -0 -0 -0 -0
-0 -10 -8 -5 -4 -0 -0 -0 -1 -0 -15 -7 -7 -5 -7 -8 -6 -0 -0 -5 -0 -0 -0 -0 -0 -0 -0 -0 -0 -0 -0 -0 -0 -0 -0 -0 -0 -5 -1 -8 -20 -13 -3 -7 -26 -36 -44 -82 -43 -0 -0 -0 -0 -0
-0 -0 -1 -0 -1 -0 -0 -2 -2 -4 -1 -5 -2 -6 -16 -17 -8 -0 -1 -0 -0 -0 -0 -0 -0 -0 -0 -0 -0 -0 -0 -0 -0 -0 -0 -0 -0 -0 -0 -2 -9 -25 -12 -4 -36 -63 -71 -84 -0 -0 -0 -0 -0 -0
-0 -0 -0 -0 -0 -1 -0 -0 -1 -4 -0 -1 -7 -11 -0 -0 -0 -0 -0 -0 -0 -0 -0 -0 -0 -0 -0 -0 -0 -0 -0 -0 -0 -0 -0 -0 -0 -0 -0 -0 -0 -0 -0 -5 -38 -52 -80 -81 -0 -0 -0 -0 -0 -0
-0 -0 -0 -0 -0 -0 -1 -0 -5 -1 -0 -1 -0 -0 -1 -0 -0 -0 -0 -0 -0 -0 -0 -0 -0 -0 -0 -0 -0 -0 -0 -0 -0 -0 -0 -1 -0 -0 -0 -0 -0 -0 -0 -7 -52 -71 -85 -105 -0 -0 -0 -0 -0 -0
-0 -0 -0 -0 -1 -5 -10 -5 -2 -0 -0 -0 -0 -0 -0 -0 -0 -0 -0 -0 -0 -0 -0 -0 -0 -0 -0 -0 -0 -0 -0 -0 -0 -0 -0 -0 -4 -4 -4 -0 -0 -0 -0 -14 -67 -98 -121 -0 -0 -0 -0 -0 -0 -0
-0 -0 -1 -1 -0 -0 -0 -0 -0 -0 -0 -0 -0 -0 -0 -0 -0 -0 -0 -0 -0 -0 -0 -0 -0 -0 -0 -0 -0 -0 -3 -0 -0 -0 -0 -0 -0 -0 -0 -0 -0 -0 -0 -15 -69 -0 -0 -0 -0 -0 -0 -0 -0 -0
-0 -20 -3 -0 -0 -0 -0 -0 -0 -0 -0 -0 -0 -0 -0 -0 -0 -0 -0 -0 -0 -0 -0 -0 -0 -0 -0 -1 -0 -0 -10 -0 -0 -0 -0 -0 -0 -0 -0 -0 -0 -16 -24 -0 -0 -0 -0 -0 -0 -0 -0 -0 -2 -0
-1 -0 -0 -0 -0 -0 -0 -0 -0 -0 -0 -0 -0 -0 -0 -0 -0 -0 -0 -0 -0 -0 -0 -0 -0 -0 -0 -0 -0 -0 -0 -0 -0 -0 -0 -0 -0 -0 -0 -3 -24 -41 -41 -0 -0 -0 -0 -0 -0 -0 -1 -0 -0 -0
-1 -0 -0 -0 -0 -0 -0 -0 -0 -0 -0 -0 -5 -3 -0 -0 -0 -1 -2 -1 -0 -0 -1 -0 -0 -0 -0 -0 -0 -0 -0 -0 -0 -0 -28 -32 -22 -11 -3 -11 -39 -48 -35 -46 -12 -26 -21 -12 -13 -8 -21 -20 -0 -0
-4 -1 -0 -0 -0 -0 -0 -0 -0 -0 -0 -0 -2 -3 -0 -0 -0 -2 -1 -1 -0 -0 -0 -0 -4 -0 -0 -0 -0 -0 -0 -6 -3 -4 -9 -2 -4 -19 -33 -34 -72 -50 -23 -25 -54 -56 -31 -16 -9 -8 -22 -4 -0 -0
-1 -1 -1 -1 -0 -0 -1 -0 -0 -0 -0 -0 -0 -1 -3 -1 -0 -1 -0 -1 -3 -4 -3 -0 -0 -0 -4 -0 -33 -0 -0 -0 -0 -0 -0 -53 -40 -25 -17 -18 -45 -50 -56 -71 -75 -55 -25 -23 -21 -9 -0 -0 -0 -0
Wind_Speed
17 19 18 19 18 18 18 19 18 19 19 20 20 20 20 20 19 19 22 23 22 31 33 37 36 37 35 32 33 28 29 21 25 30 28 34 39 41 42 42 35 37 37 37 34 36 37 23 23 25 17 7 4 6
16 12 13 14 13 14 16 16 17 17 17 19 20 20 21 21 20 19 23 25 25 27 33 38 41 42 37 34 27 22 23 26 23 27 25 28 38 30 33 47 38 36 35 36 35 39 39 32 26 19 8 4 4 7
13 11 11 12 13 13 14 15 16 17 17 17 19 19 21 21 20 19 23 27 27 30 37 35 33 35 9 13 20 36 34 30 29 32 29 30 38 27 31 27 36 29 25 28 23 27 18 28 16 15 16 12 7 7
10 12 12 12 13 12 13 14 15 15 15 17 19 21 22 21 22 22 21 25 23 27 31 32 30 32 33 19 14 21 35 28 27 26 35 32 21 23 26 27 26 24 27 26 19 15 16 18 14 6 8 9 7 7
9 11 13 12 11 11 12 14 14 14 16 19 20 20 20 20 22 21 23 27 27 23 30 36 40 39 36 27 28 19 28 34 28 26 27 31 28 24 22 25 27 22 22 25 24 20 24 14 10 9 9 7 8 9
8 10 11 11 10 11 12 14 14 14 16 18 20 20 19 18 18 17 21 20 24 23 28 31 30 32 31 26 21 23 23 30 33 29 26 27 21 22 25 27 25 20 15 18 24 20 12 13 13 7 7 6 9 7
9 8 10 10 11 10 11 13 14 15 16 18 18 19 19 18 17 16 17 16 20 20 24 27 26 23 23 15 16 20 25 30 33 33 29 29 23 23 25 25 23 25 19 22 12 11 16 16 15 8 8 4 4 4
8 7 7 7 8 9 10 12 14 15 15 16 17 19 20 20 22 23 26 24 16 19 20 24 25 23 21 18 23 18 20 25 31 33 29 25 24 23 25 24 19 21 23 23 16 9 5 9 14 15 11 7 8 6
6 4 6 6 6 7 8 11 13 12 14 13 17 20 19 17 17 18 15 14 10 16 22 23 22 22 21 21 18 19 19 23 25 30 33 28 22 27 21 19 18 20 18 17 20 20 6 7 16 8 6 5 4 9
7 6 3 5 5 6 8 11 11 11 14 16 17 16 15 15 9 12 15 15 15 17 21 25 24 24 21 19 16 19 21 22 25 25 22 32 34 26 21 19 17 15 15 13 17 23 27 10 6 4 7 7 7 6
6 5 5 3 4 6 10 12 13 12 15 16 16 16 17 13 14 14 14 14 15 20 22 27 31 30 17 22 18 17 20 20 24 22 24 29 36 31 22 19 14 8 11 16 19 4 5 2 3 3 7 4 3 5
6 4 3 3 4 12 14 17 11 16 18 18 19 20 19 16 15 15 16 17 18 20 22 25 27 28 20 16 14 19 19 20 21 19 24 27 28 24 23 22 17 11 9 13 12 6 2 2 1 4 2 1 3 3
4 5 5 16 12 19 23 23 24 22 21 21 20 18 17 17 19 19 18 18 20 21 21 20 28 20 20 19 20 18 17 20 21 21 25 26 20 18 21 21 19 15 16 16 15 11 6 6 6 4 5 4 4 3
6 22 28 27 25 27 25 25 22 22 22 21 21 21 21 22 23 24 24 23 23 19 20 15 19 20 20 21 21 19 18 19 20 20 21 15 16 12 11 11 13 16 18 19 22 20 17 12 8 10 6 5 3 2
26 24 27 26 27 26 25 26 25 22 20 21 22 21 24 21 20 20 22 23 23 23 19 11 14 17 19 20 20 18 18 19 20 19 15 9 7 4 7 10 11 13 18 20 22 23 20 14 11 10 7 3 2 2
25 19 25 27 27 26 24 23 22 21 20 21 22 21 20 21 20 18 15 23 20 12 8 14 16 16 18 17 17 20 20 20 19 17 12 7 8 11 9 11 13 15 16 17 17 15 13 13 11 11 9 5 2 1
28 18 28 28 26 23 24 22 22 22 20 20 20 21 21 21 21 19 18 18 18 18 17 15 16 18 15 17 18 17 19 16 11 9 8 8 9 10 11 13 15 16 17 18 16 16 15 17 12 7 9 10 4 4
18 23 27 27 26 23 22 23 21 20 20 21 20 20 19 21 20 20 19 17 18 18 20 17 16 16 16 15 14 11 10 12 9 6 7 7 8 9 10 10 12 13 15 15 16 17 15 11 9 8 7 8 6 3
24 24 27 27 23 20 21 22 21 18 19 17 18 18 20 20 21 19 18 19 21 19 19 19 15 13 12 12 7 17 13 8 9 10 9 8 8 10 11 11 11 11 11 12 13 14 13 13 12 11 11 11 8 4
26 26 26 23 20 18 19 19 20 16 14 16 16 15 17 19 19 18 18 20 20 17 17 16 14 11 8 9 11 12 12 7 8 9 10 11 11 13 12 13 10 11 11 10 9 10 10 10 10 10 10 8 5 5
21 21 21 19 18 19 17 17 17 15 14 15 16 18 17 18 17 16 17 17 16 15 13 13 9 7 7 7 8 6 6 9 12 12 11 13 15 17 15 14 14 13 13 11 11 10 9 10 9 9 6 5 5 2
18 21 16 19 16 17 17 16 16 13 12 15 12 13 12 10 13 16 16 14 11 12 13 13 13 14 15 15 17 18 19 19 18 16 15 14 14 17 18 18 17 16 14 11 7 8 8 8 7 6 5 4 3 6
16 17 16 16 16 15 16 14 12 14 14 14 14 14 15 14 12 15 16 14 14 16 17 18 22 25 27 28 28 29 29 29 29 26 23 20 18 18 16 19 19 17 15 10 7 8 8 8 7 4 2 1 2 7
14 15 13 14 15 16 14 13 14 13 14 14 13 14 13 13 15 16 17 18 19 23 25 27 28 30 29 30 33 33 32 30 29 29 27 24 24 22 20 18 17 18 15 12 8 7 8 7 6 5 4 5 3 6
14 13 14 15 15 15 14 13 13 12 13 12 13 13 12 11 13 14 15 16 20 22 24 25 25 23 23 24 26 29 30 28 29 32 30 28 26 26 25 22 21 21 19 14 9 8 7 7 6 6 8 10 7 6
15 13 14 14 14 14 13 13 12 12 12 12 10 11 10 11 11 11 9 10 10 12 16 19 21 22 23 23 24 24 25 27 31 33 32 32 30 29 27 23 23 24 22 16 9 9 9 5 3 4 7 9 5 5
15 15 14 15 14 13 14 14 12 10 12 11 10 10 10 10 8 7 8 7 6 7 12 11 11 17 20 20 21 23 26 26 28 28 28 32 31 30 31 27 25 26 18 14 13 9 4 1 3 3 8 10 7 5
13 12 13 12 11 9 8 13 12 13 13 12 15 14 14 9 11 7 10 3 6 10 10 11 8 15 19 18 19 19 20 28 27 26 23 24 28 31 32 31 29 26 23 16 11 7 4 2 4 3 8 8 8 4
11 14 13 9 11 10 9 13 16 16 13 14 20 20 11 11 14 15 11 3 7 5 22 23 20 14 12 11 12 14 12 13 7 31 29 29 31 32 32 30 25 18 9 7 6 4 6 11 6 11 12 9 16 11
6 7 9 10 16 17 15 19 19 17 18 20 22 21 21 21 20 16 19 7 14 18 9 1 8 11 7 9 10 12 15 20 25 30 34 32 32 30 28 25 7 10 19 21 22 26 25 24 24 23 20 8 7 11
9 8 9 15 18 18 22 22 19 17 18 20 20 20 19 24 28 24 36 9 11 12 11 9 12 4 9 10 13 15 16 18 21 26 27 26 26 25 12 6 28 22 23 29 32 34 31 30 27 15 11 8 8 3
11 10 14 19 20 24 22 15 18 21 20 20 17 24 29 27 30 26 10 12 13 13 12 12 14 11 12 12 12 12 12 15 14 15 16 17 15 8 16 27 26 31 35 44 39 34 29 27 26 31 26 7 11 7
8 11 15 16 16 17 19 19 20 20 19 14 12 22 25 27 29 12 6 8 10 10 12 14 15 13 12 10 10 11 9 9 8 9 12 16 14 13 21 27 31 41 38 39 33 29 25 24 11 7 14 17 15 12
Wind_Direction
298 300 301 300 298 299 300 301 303 303 303 303 303 301 297 298 296 293 292 288 286 284 285 282 282 284 288 291 291 297 301 296 278 257 265 260 258 252 250 245 246 243 245 247 250 254 257 267 264 260 263 231 244 248
307 305 309 311 311 307 306 308 307 307 305 305 301 301 299 293 294 293 289 284 290 281 280 278 273 266 280 284 293 289 281 272 261 257 262 264 248 257 252 244 245 247 249 248 251 254 261 272 272 253 241 206 178 170
309 313 312 309 309 308 309 311 309 307 304 306 304 300 299 294 291 288 286 283 288 286 280 277 279 272 261 237 271 257 260 255 266 268 279 271 251 256 249 250 244 262 252 255 251 254 256 250 279 243 245 234 200 161
316 315 315 310 311 316 315 315 316 314 312 307 304 298 295 293 289 285 285 280 286 284 279 277 281 282 272 289 256 264 260 264 278 269 261 255 261 265 256 255 251 256 254 256 257 246 249 253 241 208 184 173 156 152
319 318 319 314 310 314 315 315 316 314 311 307 302 298 297 295 289 287 283 278 275 279 276 277 276 266 253 269 270 263 262 254 263 270 273 258 260 267 257 259 251 259 259 252 254 253 260 230 203 177 159 171 183 156
322 324 322 326 323 315 313 314 314 313 310 307 303 298 296 297 298 294 293 284 279 278 278 276 283 273 265 274 271 263 268 255 249 250 259 269 267 259 257 253 253 255 265 281 259 259 252 239 231 230 224 178 180 159
326 328 323 320 323 323 318 316 312 310 308 306 306 301 296 294 293 285 289 299 295 289 276 277 277 284 273 286 281 271 268 257 250 251 258 267 274 274 255 255 262 249 253 263 270 283 251 255 238 148 125 295 52 95
331 335 333 329 326 330 327 321 316 311 309 305 307 301 294 291 289 282 275 282 300 286 281 273 273 281 278 276 270 275 271 260 254 249 254 264 271 266 252 259 268 261 252 256 261 273 329 254 213 220 158 138 102 94
333 341 345 340 331 327 325 321 316 316 314 313 306 299 297 294 290 287 291 295 283 277 277 268 267 277 283 270 285 269 269 263 264 254 250 255 262 251 268 269 272 262 257 263 260 243 185 166 205 89 127 139 133 93
336 336 332 341 337 321 316 309 308 311 312 300 301 299 295 286 297 298 288 283 279 274 271 265 263 265 279 275 276 268 264 264 259 257 261 247 245 260 262 267 274 259 243 280 242 194 192 179 133 105 89 94 97 91
340 341 336 327 333 306 295 292 290 295 291 281 275 269 265 263 278 282 283 276 278 275 268 259 248 246 273 267 268 278 261 263 257 259 250 248 240 246 245 252 266 281 263 253 267 243 84 116 127 96 81 75 68 78
349 358 16 338 300 276 270 263 279 264 254 250 242 240 240 269 271 272 273 273 271 265 255 243 237 235 255 265 280 268 263 263 256 264 251 250 249 242 244 246 254 262 270 257 270 335 354 337 35 70 59 360 333 45
27 17 91 258 264 244 233 229 221 236 235 226 230 242 250 251 248 250 252 252 247 243 244 235 222 237 248 253 245 252 263 256 270 258 250 255 261 245 244 248 244 251 253 256 263 283 329 347 344 358 351 15 49 48
58 229 190 203 210 205 210 204 215 211 208 218 221 224 220 215 211 210 219 223 233 248 229 230 230 239 244 241 243 247 258 261 255 257 257 276 269 236 238 237 251 258 263 267 264 268 275 286 317 329 323 350 356 43
191 199 185 195 194 199 200 199 198 209 220 215 211 209 199 203 205 209 215 219 191 217 229 238 244 246 238 241 247 256 259 260 260 263 264 279 286 259 246 258 269 278 270 274 276 271 275 280 281 295 313 325 43 90
185 197 190 183 188 193 199 204 208 213 214 212 211 215 227 226 222 224 230 211 208 175 239 241 240 245 241 251 255 254 259 262 269 275 276 291 283 274 279 280 279 280 278 276 284 286 276 277 275 284 278 278 294 175
165 198 173 177 185 196 197 199 203 202 207 211 212 216 231 233 227 227 230 227 234 227 232 241 240 243 256 259 261 270 269 279 281 308 290 289 282 280 293 287 280 278 278 274 275 278 282 287 274 287 273 276 266 210
193 180 173 176 178 186 194 196 199 199 202 207 217 226 235 231 229 220 214 224 224 227 223 236 248 256 263 270 283 292 297 273 274 305 320 302 290 300 309 299 285 275 277 274 273 269 276 284 288 290 293 291 270 259
172 174 172 173 181 189 186 185 192 197 203 227 235 227 225 220 209 211 205 199 197 209 224 230 262 278 285 284 265 231 255 276 274 278 292 311 307 295 300 289 287 283 289 286 272 263 262 271 276 280 274 272 269 254
163 165 167 176 189 189 185 183 180 173 199 191 197 209 203 204 205 212 211 197 197 212 221 247 272 292 316 281 273 270 268 296 303 296 299 285 284 271 277 282 278 274 274 287 287 267 261 267 279 292 279 273 255 248
173 174 179 187 194 192 197 191 190 191 179 182 175 179 195 201 209 217 211 214 234 239 257 264 286 334 317 288 294 268 282 304 296 297 285 269 257 249 254 263 264 268 265 280 274 277 271 271 291 289 298 275 242 200
183 170 189 183 203 198 196 199 195 201 195 187 192 192 211 221 213 216 228 249 278 274 269 276 280 268 266 275 274 275 282 280 284 280 278 268 268 254 248 245 245 254 265 284 311 295 293 294 291 287 280 271 238 211
195 186 197 203 202 206 199 202 215 199 202 203 200 203 201 223 229 264 251 282 286 299 301 295 285 282 273 270 271 270 268 267 259 256 258 258 261 255 259 250 249 255 267 289 309 305 317 318 317 292 326 54 149 203
210 206 217 212 209 200 218 215 216 219 226 215 207 192 203 227 234 217 204 223 250 279 279 276 278 283 289 283 270 264 260 260 257 254 252 255 253 254 256 260 260 256 272 292 288 300 307 317 313 283 245 230 199 208
192 199 203 194 203 202 198 199 198 197 191 205 195 191 209 230 203 200 211 238 262 266 264 264 256 239 229 229 233 242 249 251 246 238 240 243 245 243 245 249 249 248 259 272 278 282 276 296 294 263 235 220 203 199
177 190 186 190 191 190 197 194 198 192 190 186 198 205 215 207 188 181 212 238 239 245 260 267 264 254 241 222 221 217 210 198 208 215 224 225 232 233 234 240 242 239 242 257 261 253 256 289 293 250 229 215 178 127
170 171 180 186 182 183 188 184 184 181 175 177 175 174 182 173 188 201 214 178 159 226 249 235 221 244 251 245 226 213 207 183 180 187 209 208 216 222 220 225 227 224 241 239 239 249 264 315 237 217 216 213 209 201
179 190 177 179 183 196 184 172 169 161 154 152 137 134 146 168 134 136 109 155 245 245 238 237 183 265 275 264 249 231 219 180 182 187 198 207 205 203 202 202 202 212 220 229 241 254 257 131 199 180 209 204 215 206
179 171 172 175 176 170 164 156 149 143 144 137 123 121 139 133 101 84 72 309 275 210 347 356 325 288 300 271 243 228 224 219 198 164 176 177 176 178 181 188 203 216 219 230 244 234 231 222 194 193 190 189 210 196
163 178 173 163 154 150 151 147 140 139 130 121 117 112 102 92 81 83 82 38 360 354 335 152 136 349 315 207 198 199 201 196 187 173 165 170 172 177 181 189 103 193 196 191 190 181 180 180 184 192 206 171 147 91
168 164 158 157 151 152 146 140 135 133 128 121 115 104 97 83 73 21 50 35 26 23 53 33 101 95 128 143 159 166 171 176 174 172 173 173 174 176 176 164 170 182 180 170 166 165 171 175 179 181 114 106 102 131
178 172 165 159 156 148 148 155 140 122 117 114 114 99 83 85 74 78 27 78 23 34 49 70 90 89 121 129 139 148 155 162 161 166 172 174 176 180 178 166 171 164 160 153 152 157 164 168 174 165 173 166 93 89
185 179 170 169 173 164 159 152 145 132 120 116 104 102 93 88 83 97 91 43 88 73 59 80 93 95 93 96 114 121 120 132 143 158 172 176 178 177 168 163 163 155 160 155 159 161 167 169 98 109 89 88 83 79